User: anonymous   Login
Location: Unspecified
(0.0000°N, 0.0000°E)
Time: 12:30:35
(UTC+00:00)
Language:

Transit 2A - Orbit

View from above orbital plane
View from above orbital plane
View from above satellite
View from above satellite

Ground track
Ground track

The orbit data is extracted from the following two-line orbital elements,

1    45U 60007A   17345.94784242 -.00000068 +00000-0 +10196-4 0  9998
2    45 066.6950 281.2218 0262924 264.3400 092.7668 14.33581719934210
Epoch (UTC): 11 December 2017 22:44:53
Eccentricity: 0.0262924
inclination: 66.6950°
perigee height: 591 km
apogee height: 968 km
right ascension of ascending node: 281.2218°
argument of perigee: 264.3400°
revolutions per day: 14.33581719
mean anomaly at epoch: 92.7668°
orbit number at epoch: 93421

The dashed part of the orbit path shows where the satellite is in the earth's shadow,  

DLR